Location: Newark
(40.9833°N, 0.0333°W)
Time: 17:32:05
(UTC+00:00)

Transit 4A - Pass Details

Date: 04 November 2020
Orbit: 862 x 982 km, 66.8° (Epoch: 23 November)

Event Time Altitude Azimuth Distance (km) Brightness Sun altitude
Rises 12:46:14 0° 190° (S) 3,572 12.1 31.6°
Reaches altitude 10° 12:48:48 10° 184° (S) 2,649 11.7 31.4°
Maximum altitude 12:54:43 48° 112° (ESE) 1,231 9.0 31.1°
Drops below altitude 10° 13:00:48 10° 40° (NE) 2,727 9.9 30.6°
Sets 13:03:28 0° 35° (NE) 3,687 10.5 30.5°
